Time,TemperatureF,DewpointF,PressureIn,WindDirection,WindDirectionDegrees,WindSpeedMPH,WindSpeedGustMPH,Humidity,HourlyPrecipIn,Conditions,Clouds,dailyrainin,SolarRadiationWatts/m^2,SoftwareType,DateUTC
2013-08-16 05:42:00,49.0,42.0,-100.00,SSE,163,3.0,4.0,78,0.00,,,-99.99,0.000000,,2013-08-16 11:42:00,
2013-08-16 09:43:00,63.0,47.0,-100.00,South,180,5.0,6.0,56,0.00,,,0.00,271.000000,,2013-08-16 15:43:00,
2013-08-16 09:56:00,63.0,47.0,-100.00,South,180,5.0,6.0,56,0.00,,,0.00,271.000000,,2013-08-16 15:56:00,
2013-08-16 10:04:00,63.0,47.0,-100.00,South,180,5.0,6.0,56,0.00,,,0.00,271.000000,,2013-08-16 16:04:00,
2013-08-16 10:13:00,63.0,47.0,-100.00,South,180,5.0,6.0,56,0.00,,,0.00,271.000000,,2013-08-16 16:13:00,
2013-08-16 10:44:00,74.0,48.0,-100.00,NE,44,2.0,6.0,40,0.00,,,0.00,471.000000,,2013-08-16 16:44:00,
2013-08-16 10:57:00,74.0,48.0,-100.00,NE,44,2.0,6.0,40,0.00,,,0.00,471.000000,,2013-08-16 16:57:00,
2013-08-16 11:03:00,74.0,48.0,-100.00,NE,44,2.0,6.0,40,0.00,,,0.00,471.000000,,2013-08-16 17:03:00,
2013-08-16 11:12:00,74.0,48.0,-100.00,NE,44,2.0,6.0,40,0.00,,,0.00,471.000000,,2013-08-16 17:12:00,
2013-08-16 11:14:00,82.0,42.0,-100.00,WSW,258,3.0,6.0,24,0.00,,,0.00,663.000000,,2013-08-16 17:14:00,
2013-08-16 12:00:00,82.0,42.0,-100.00,WSW,258,3.0,6.0,24,0.00,,,0.00,663.000000,,2013-08-16 18:00:00,
2013-08-16 12:06:00,82.0,42.0,-100.00,WSW,258,3.0,6.0,24,0.00,,,0.00,663.000000,,2013-08-16 18:06:00,
2013-08-16 12:14:00,85.0,38.0,-100.00,NNE,17,3.0,5.0,19,0.00,,,0.00,817.000000,,2013-08-16 18:14:00,
2013-08-16 12:50:00,-999.0,-99.9,-100.00,NNE,17,3.0,5.0,19,0.00,,,0.00,817.000000,,2013-08-16 18:50:00,
2013-08-16 13:02:00,85.0,38.0,-100.00,NNE,17,3.0,5.0,19,0.00,,,0.00,817.000000,,2013-08-16 19:02:00,
2013-08-16 13:46:00,89.0,44.0,-100.00,East,80,4.0,5.0,21,0.00,,,0.00,919.000000,,2013-08-16 19:46:00,
2013-08-16 13:55:00,89.0,44.0,-100.00,East,80,4.0,5.0,21,0.00,,,0.00,919.000000,,2013-08-16 19:55:00,
2013-08-16 14:02:00,89.0,44.0,-100.00,East,80,4.0,5.0,21,0.00,,,0.00,919.000000,,2013-08-16 20:02:00,
2013-08-16 14:11:00,89.0,44.0,-100.00,East,80,4.0,5.0,21,0.00,,,0.00,919.000000,,2013-08-16 20:11:00,
2013-08-16 14:44:00,92.0,42.0,-100.00,NE,35,3.0,7.0,18,0.00,,,0.00,921.000000,,2013-08-16 20:44:00,
2013-08-16 14:52:00,92.0,42.0,-100.00,NE,35,3.0,7.0,18,0.00,,,0.00,921.000000,,2013-08-16 20:52:00,
2013-08-16 15:01:00,92.0,42.0,-100.00,NE,35,3.0,7.0,18,0.00,,,0.00,921.000000,,2013-08-16 21:01:00,
2013-08-16 15:11:00,92.0,42.0,-100.00,NE,35,3.0,7.0,18,0.00,,,0.00,921.000000,,2013-08-16 21:11:00,
2013-08-16 15:40:00,-999.0,-99.9,-100.00,North,357,3.0,6.0,-999,0.00,,,0.00,850.000000,,2013-08-16 21:40:00,
2013-08-16 15:54:00,97.0,42.0,-100.00,North,357,3.0,6.0,15,0.00,,,0.00,850.000000,,2013-08-16 21:54:00,
2013-08-16 16:07:00,97.0,42.0,-100.00,North,357,3.0,6.0,15,0.00,,,0.00,850.000000,,2013-08-16 22:07:00,
2013-08-16 16:13:00,97.0,42.0,-100.00,North,357,3.0,6.0,15,0.00,,,0.00,850.000000,,2013-08-16 22:13:00,
2013-08-16 16:43:00,96.0,44.0,-100.00,East,92,5.0,6.0,17,0.00,,,0.00,847.000000,,2013-08-16 22:43:00,
2013-08-16 16:52:00,96.0,44.0,-100.00,East,92,5.0,6.0,17,0.00,,,0.00,847.000000,,2013-08-16 22:52:00,
2013-08-16 17:09:00,96.0,44.0,-100.00,East,92,5.0,6.0,17,0.00,,,0.00,847.000000,,2013-08-16 23:09:00,
2013-08-16 17:42:00,97.0,42.0,-100.00,NE,37,6.0,11.0,15,0.00,,,0.00,727.000000,,2013-08-16 23:42:00,
2013-08-16 17:52:00,97.0,42.0,-100.00,NE,37,6.0,11.0,15,0.00,,,0.00,727.000000,,2013-08-16 23:52:00,
2013-08-16 18:01:00,97.0,42.0,-100.00,NE,37,6.0,11.0,15,0.00,,,0.00,727.000000,,2013-08-17 00:01:00,
2013-08-16 18:11:00,97.0,42.0,-100.00,NE,37,6.0,11.0,15,0.00,,,0.00,727.000000,,2013-08-17 00:11:00,
2013-08-16 18:42:00,91.0,53.0,-100.00,North,7,4.0,7.0,28,0.00,,,0.00,428.000000,,2013-08-17 00:42:00,
2013-08-16 19:52:00,87.0,51.0,-100.00,NE,38,3.0,8.0,29,0.00,,,0.00,193.000000,,2013-08-17 01:52:00,
2013-08-16 20:01:00,87.0,51.0,-100.00,NE,38,3.0,8.0,29,0.00,,,0.00,193.000000,,2013-08-17 02:01:00,
2013-08-16 22:44:00,73.0,46.0,-100.00,East,93,4.0,9.0,38,-99.99,,,0.00,0.000000,,2013-08-17 04:44:00,
2013-08-16 23:42:00,72.0,46.0,-100.00,SSW,201,6.0,15.0,40,-99.99,,,0.00,0.000000,,2013-08-17 05:42:00,
2013-08-16 23:52:00,72.0,46.0,-100.00,SSW,201,6.0,15.0,40,-99.99,,,0.00,0.000000,,2013-08-17 05:52:00,